User: anonymous   Login
Location: Olsztyn
(53.7767°N, 20.4765°E)
Time: 16:16:09
(UTC+02:00)
Language:

Courier 1B Rocket - Orbit

View from above orbital plane
View from above orbital plane
View from above satellite
View from above satellite

Ground track
Ground track

The orbit data is extracted from the following two-line orbital elements,

1 00059U 60013B   24195.91636601  .00000128  00000-0  49368-4 0  9992
2 00059  28.2473 137.0212 0189100 171.5404 188.8393 13.53080099147841
Epoch (UTC): 13 July 2024 21:59:34
Eccentricity: 0.0189100
inclination: 28.2473°
perigee height: 920 km
apogee height: 1201 km
right ascension of ascending node: 137.0212°
argument of perigee: 171.5404°
revolutions per day: 13.53080099
mean anomaly at epoch: 188.8393°
orbit number at epoch: 14784

The dashed part of the orbit path shows where the satellite is in the earth's shadow,  

DLR